Weather History for Winnemucca, NV

Change the Weather History Date:

Sunday, April 21, 2013

  Actual Average Record
Temperature  
Mean Temperature 48 °F 48 °F  
Max Temperature 70 °F 64 °F 85 °F (2012)
Min Temperature 25 °F 32 °F 14 °F (2008)
Degree Days  
Heating Degree Days 17 17  
Month to date heating degree days 425 409  
Since 1 July heating degree days 5901 5737  
Cooling Degree Days 0 0  
Month to date cooling degree days 0 0  
Year to date cooling degree days 0 0  
Moisture  
Dew Point 19 °F    
Average Humidity 41    
Maximum Humidity 68    
Minimum Humidity 13    
Precipitation  
Precipitation 0.00 in 0.03 in 0.52 in (1997)
Month to date precipitation 0.55 0.60  
Year to date precipitation 1.34 2.96  
Snow  
Snow 0.00 in 0.10 in 0.30 in (1909)
Month to date snowfall T 1.3  
Since 1 July snowfall 21.9 20.5  
Snow Depth 0.00 in    
Sea Level Pressure  
Sea Level Pressure 30.08 in    
Wind  
Wind Speed 6 mph (West)    
Max Wind Speed 22 mph    
Max Gust Speed 30 mph    
Visibility 10 miles    
Events      
T = Trace of Precipitation, MM = Missing Value Source: NWS Daily Summary

Daily Weather History Graph

Daily Weather History Graph

Search for Another Location

Airport:

Trip Planner

Search our weather history database for the weather conditions in past years. The results will help you decide how hot, cold, wet, or windy it might be!

Date:

Astronomy

Apr. 21, 2013 Rise Set
Actual Time 6:02 AM PDT 7:37 PM PDT
Civil Twilight 5:33 AM PDT 8:06 PM PDT
Nautical Twilight 4:58 AM PDT 8:41 PM PDT
Astronomical Twilight 4:21 AM PDT 9:19 PM PDT
Moon 3:26 PM PDT (4/21) 3:29 AM PDT (4/21)
Length of Visible Light 14h 32m
Length of Day
13h 34m
Waxing Gibbous, 81% of the Moon is Illuminated
Apr 21
Waxing Gibbous
Apr 25
Full
May 2
Last Quarter
May 9
New
May 17
First Quarter

Hourly Weather History & Observations

Time (PDT) Temp. Windchill Dew Point Humidity Pressure Visibility Wind Dir Wind Speed Gust Speed Precip Events Conditions
12:56 AM 37.0 °F 29.8 °F 18.0 °F 46% 30.13 in 10.0 mi ESE 10.4 mph - N/A   Clear
1:56 AM 30.9 °F 24.3 °F 17.1 °F 57% 30.13 in 10.0 mi SE 6.9 mph - N/A   Clear
2:56 AM 32.0 °F - 18.0 °F 56% 30.11 in 10.0 mi Calm Calm - N/A   Clear
3:56 AM 28.0 °F 24.2 °F 17.1 °F 63% 30.11 in 10.0 mi SSE 3.5 mph - N/A   Clear
4:56 AM 26.1 °F 20.5 °F 16.0 °F 66% 30.12 in 10.0 mi ESE 4.6 mph - N/A   Clear
5:56 AM 27.0 °F 20.5 °F 17.1 °F 66% 30.12 in 10.0 mi South 5.8 mph - N/A   Clear
6:56 AM 30.0 °F - 18.0 °F 61% 30.14 in 10.0 mi Calm Calm - N/A   Clear
7:56 AM 41.0 °F - 19.9 °F 43% 30.15 in 10.0 mi Calm Calm - N/A   Clear
8:56 AM 50.0 °F - 21.0 °F 32% 30.15 in 10.0 mi Calm Calm - N/A   Clear
9:56 AM 55.9 °F - 19.9 °F 25% 30.13 in 10.0 mi Calm Calm - N/A   Clear
10:56 AM 61.0 °F - 21.0 °F 21% 30.12 in 10.0 mi WNW 6.9 mph - N/A   Clear
11:56 AM 64.0 °F - 21.0 °F 19% 30.09 in 10.0 mi West 11.5 mph - N/A   Clear
12:56 PM 66.0 °F - 17.1 °F 15% 30.06 in 10.0 mi Variable 6.9 mph 23.0 mph N/A   Clear
1:56 PM 68.0 °F - 15.1 °F 13% 30.06 in 10.0 mi West 15.0 mph 27.6 mph N/A   Clear
2:56 PM 69.1 °F - 17.1 °F 14% 30.03 in 10.0 mi West 10.4 mph 25.3 mph N/A   Clear
3:56 PM 68.0 °F - 18.0 °F 15% 30.02 in 10.0 mi West 10.4 mph 24.2 mph N/A   Clear
4:56 PM 69.1 °F - 18.0 °F 14% 30.01 in 10.0 mi NW 12.7 mph 21.9 mph N/A   Clear
5:56 PM 66.9 °F - 19.0 °F 16% 30.00 in 10.0 mi WSW 10.4 mph - N/A   Clear
6:56 PM 64.9 °F - 21.9 °F 19% 29.99 in 10.0 mi NNW 13.8 mph 26.5 mph N/A   Clear
7:06 PM 64.4 °F - 21.2 °F 19% 30.03 in 10.0 mi NNW 11.5 mph - N/A   Clear
7:56 PM 59.0 °F - 21.9 °F 24% 30.01 in 10.0 mi NNW 8.1 mph - N/A   Clear
8:56 PM 52.0 °F - 21.9 °F 31% 30.04 in 10.0 mi Calm Calm - N/A   Clear
9:56 PM 46.0 °F 43.1 °F 21.0 °F 37% 30.06 in 10.0 mi West 5.8 mph - N/A   Clear
10:56 PM 48.9 °F - 23.0 °F 36% 30.04 in 10.0 mi WNW 5.8 mph - N/A   Clear
11:56 PM 46.9 °F - 24.1 °F 41% 30.05 in 10.0 mi NNW 5.8 mph - N/A   Clear